Lid_Strength_Index
1 1 1 1 0 -0 -0 -0 -1 -1 -1 -1 -1 -1 -1 -0 0 4 6 4 4 1 2 4 4 3 3 3 3 3 8 10 9 9 8 5 6 4 3 5 4 4 4 3 2
1 1 1 1 0 -0 -0 -0 -0 -0 -1 -1 -1 -1 -1 -1 2 5 2 2 2 1 5 6 6 4 4 4 4 6 8 9 6 6 7 6 6 5 5 5 5 4 3 2 2
1 1 1 1 0 0 -0 -1 -0 -0 -0 -0 -1 -1 -1 0 4 5 -0 1 1 2 4 6 6 6 5 4 5 6 8 6 6 6 5 6 6 5 6 7 5 5 4 3 3
1 2 1 1 1 1 0 -0 -1 -0 0 0 -0 -1 -1 1 11 2 -1 -0 -0 2 4 7 8 8 7 7 5 8 6 6 6 6 6 7 5 6 6 5 4 4 3 3 4
0 1 1 1 1 1 1 1 -0 -0 -0 -0 -0 -1 0 4 5 2 -0 -1 1 1 6 8 9 8 9 7 6 7 6 6 6 6 6 6 6 6 6 5 4 3 3 3 3
-0 -0 0 1 1 1 2 1 0 0 -0 0 -0 -0 3 8 1 1 1 1 2 1 4 7 9 8 8 8 8 7 6 6 6 6 6 7 7 6 6 5 5 5 4 3 3
-1 -1 -1 0 1 1 1 1 1 0 0 1 0 1 4 6 0 0 1 2 1 2 3 4 6 8 8 9 8 8 9 7 7 7 7 7 8 8 5 6 6 6 5 5 3
-1 -1 -1 -1 -1 -0 -0 0 0 1 0 0 0 2 6 2 1 1 1 1 0 1 1 2 3 6 7 7 9 10 10 10 7 7 8 7 10 7 7 7 7 7 6 6 6
-2 -2 -1 -1 -1 -1 -1 -1 -0 1 0 0 2 3 7 1 3 2 1 3 2 1 1 2 3 6 7 9 11 11 13 12 11 8 8 8 9 8 6 7 7 7 7 6 6
-2 -1 -1 -1 -1 -1 -1 -1 -1 0 0 1 2 6 5 6 3 2 1 1 3 3 4 4 6 8 9 10 15 13 13 12 12 11 10 9 9 8 7 7 7 7 7 7 7
-2 -1 -1 -1 -1 -1 -1 0 3 4 4 7 6 6 5 3 2 3 1 2 3 5 8 6 9 11 9 8 9 9 11 12 12 11 11 11 10 9 8 8 8 8 8 8 7
-1 -1 -1 -1 -1 -1 -1 3 4 3 8 4 4 4 4 3 6 4 1 6 7 9 7 9 12 8 7 7 9 9 11 12 12 11 11 12 12 10 10 11 10 9 8 8 8
-2 -2 -1 -1 -1 -0 1 2 -1 1 7 6 4 5 5 3 6 6 3 5 8 9 9 10 9 7 9 9 10 10 11 11 12 12 12 13 13 13 11 10 10 9 8 8 9
-2 -2 -2 -1 1 0 3 -0 -1 0 11 10 8 5 4 4 7 3 3 5 7 10 8 9 7 10 10 10 9 12 9 10 11 13 15 12 17 14 13 12 12 11 10 10 9
-2 -2 -2 -1 1 2 1 -1 -1 2 18 9 8 2 4 6 6 6 3 5 9 9 8 10 10 10 10 9 8 10 9 10 10 12 13 13 15 13 13 14 13 12 11 11 10
-2 -1 -1 -0 -0 0 -1 -1 2 13 18 12 8 8 8 7 6 6 6 4 5 8 8 9 7 7 9 8 7 7 9 10 11 12 18 13 15 15 14 13 13 12 12 12 11
-1 -1 -1 -1 3 -1 -1 3 13 17 10 13 11 9 8 9 8 8 9 10 11 15 14 11 10 8 7 10 8 8 11 18 18 18 18 13 14 14 13 12 12 12 12 12 12
-2 -2 -0 -0 -0 -0 1 8 16 13 12 9 10 9 11 9 9 9 10 11 9 10 12 15 16 10 8 9 11 10 11 16 21 19 17 15 17 15 13 12 12 12 11 11 11
-2 -0 0 0 -1 -1 5 13 14 12 10 11 11 12 13 10 10 11 11 11 9 9 12 13 15 9 8 8 8 11 13 10 14 16 16 15 15 13 12 13 13 12 12 12 11
1 1 2 1 0 2 9 12 11 9 9 10 14 12 14 12 12 12 12 11 11 8 7 10 15 10 9 8 8 9 8 14 13 19 18 16 16 15 14 14 13 13 12 12 11
1 5 1 1 0 5 12 11 10 8 8 10 12 12 11 12 11 12 13 10 9 9 7 8 11 14 10 12 12 11 12 12 11 14 16 18 15 10 12 12 12 12 11 11 10
2 9 0 0 8 9 10 10 8 8 7 8 9 10 12 10 12 13 13 11 7 8 11 9 11 16 14 9 8 10 11 11 14 17 14 15 15 10 10 10 10 10 10 9 9
5 5 0 2 11 10 9 10 9 9 9 9 10 9 9 11 13 11 11 8 7 8 10 8 12 17 16 12 9 12 11 11 11 12 16 16 15 9 8 9 9 10 9 9 9
4 9 5 5 6 8 10 12 11 8 8 8 9 9 10 11 10 12 12 8 7 7 8 7 11 13 15 14 11 13 12 11 12 16 15 14 13 11 9 9 10 10 10 10 9
4 8 7 10 8 9 9 10 11 11 8 7 9 10 11 13 12 12 10 9 8 8 8 9 14 12 12 11 11 11 12 12 12 12 15 13 12 10 8 10 10 10 10 10 10
6 7 6 8 8 8 9 10 11 10 9 10 9 9 10 12 10 12 10 10 10 8 9 8 13 13 15 13 11 13 11 11 11 11 11 11 11 7 9 9 10 10 9 9 9
4 3 4 8 8 8 9 9 9 8 7 7 7 8 10 11 9 9 8 8 9 9 10 11 12 13 16 16 15 15 13 11 10 9 10 13 10 10 11 11 10 10 10 9 9